Location: Gad�tanya
(48.0500°N, 20.8500°E)
Time: 10:49:06
(UTC+00:00)

Cosmos 1408 Rocket - Pass Details

Date: 05 July 2020
Orbit: 601 x 631 km, 82.6° (Epoch: 15 August)

Event Time Altitude Azimuth Distance (km) Brightness Sun altitude
Exits shadow 21:58:50 33° 129° (SE) 1,033 4.3 -18.6°
Maximum altitude 21:59:59 41° 92° (E) 906 4.3 -18.7°
Drops below altitude 10° 22:04:08 10° 23° (NNE) 1,999 7.0 -18.8°
Sets 22:06:28 0° 16° (NNE) 2,916 8.2 -18.8°
